Content
SEND FEEDBACK

Daily
Averages
Monthly
Summary
United States of America

SOUTH LAKE TAHOE - AIRPORT, CALIFORNIA


Home > North America > United States > California
Elevation: 6250 feet     Latitude: 38 54N     Longitude: 120 00W

WEATHER
 
SELECT A DAY
Number of Records: 174,348;   Date Range: 1/1/95 - 7/23/14
 
SHARE

PRINT THIS DATA

[ ← Previous Day ]
WEATHER ALMANAC - JANUARY 17, 2013
[ Next Day → ]
[ °C ]   °F
Weather ElementAverageHighLow
Temperature22.6 °F45 °F (2:53 pm)1.9 °F (7:53 am)
Dewpoint8.4 °F19 °F (3:53 pm)-4 °F (7:53 am)
Humidity58.4 %76 % (5:53 am)28 % (11:53 am)
Barometer30.51 in30.66 in (7:53 am)30.38 in (2:53 pm)
Wind Speed2.5 mph8.1 mph (1:53 pm)
Weather ElementAverage
Visibility9.5 mi
Wind DirectionENE (72.4 °)

Weather ElementTotal
Precipitation---
Heating Degree Days41.6 (Base 65)
Averaged from 21 records on January 17, 2013
WEATHER CONDITIONS BREAKOUT
WIND DIRECTION BREAKOUT
WEATHER BY HOUR - JANUARY 17, 2013
[ °C ]   °F
Local TimeTemperatureDewpointHumidityBarometerVisibilityWind DirectionWind SpeedGust SpeedPrecipitationEventsConditions
1:53 AM10.9 °F3.9 °F73 %30.50 in8.0 miSouth (190°)3.5 mphClear
4:53 AM7.0 °F0.0 °F73 %30.56 in10.0 miSSW (200°)4.6 mphClear
5:53 AM3.9 °F-2.0 °F76 %30.61 in10.0 miCalmClear
6:53 AM3.9 °F-2.0 °F76 %30.63 in10.0 miSW (220°)3.5 mphClear
7:53 AM1.9 °F-4.0 °F76 %30.66 in6.0 miSouth (190°)4.6 mphHaze
8:53 AM10.0 °F3.0 °F73 %30.63 in9.0 miSouth (190°)3.5 mphClear
9:53 AM23.0 °F10.0 °F58 %30.57 in9.0 miCalmClear
10:53 AM32.0 °F10.0 °F40 %30.52 in10.0 miNNE (30°)3.5 mphClear
11:53 AM41.0 °F10.0 °F28 %30.45 in10.0 miCalmClear
12:53 PM44.1 °F14.0 °F30 %30.41 in10.0 miNE (40°)6.9 mphClear
1:53 PM44.1 °F14.0 °F30 %30.39 in10.0 miNE (40°)8.1 mphClear
2:53 PM45.0 °F14.0 °F29 %30.38 in10.0 miNNE (30°)8.1 mphClear
3:53 PM37.9 °F19.0 °F47 %30.42 in10.0 miCalmClear
4:53 PM33.1 °F17.1 °F52 %30.47 in10.0 miCalmClear
5:53 PM26.1 °F14.0 °F60 %30.53 in10.0 miCalmClear
6:53 PM25.0 °F14.0 °F63 %30.53 in10.0 miCalmClear
7:53 PM21.9 °F10.9 °F63 %30.57 in10.0 miCalmClear
8:53 PM18.0 °F10.0 °F71 %30.56 in10.0 miCalmClear
9:53 PM17.1 °F8.1 °F68 %30.49 in10.0 miSouth (190°)3.5 mphClear
10:53 PM15.1 °F7.0 °F70 %30.46 in9.0 miCalmClear
11:53 PM12.9 °F5.0 °F71 %30.43 in8.0 miSSW (200°)3.5 mphClear
Hourly data recorded from KTVL, located miles away from South Lake Tahoe - Airport, California







STORIES FROM OUR PARTNERS